Weather Roundup
Issued by NWS

Home | Current Version | Previous Version | Graphics & Text | Print | Product List | Glossary Off
Versions: 1 2 3 4 5 6 7 8 9 10 11 12 13 14 15 16 17 18 19 20 21 22 23 24 25 26 27 28 29 30 31 32 33 34 35 36 37 38 39 40 41 42 43 44 45 46 47 48 49 50

000
NZUS93 KARX 010959
HRRWXR

CURRENT HOURLY OBSERVATIONS ACROSS
MUCH OF THE UPPER MISSISSIPPI VALLEY
NATIONAL WEATHER SERVICE LA CROSSE WI
500 AM CDT MON SEP 01 2014


...SOUTHEAST MINNESOTA...


CITY           SKY/WX    TMP DP  RH WIND       PRES   REMARKS
ROCHESTER      CLOUDY    64  61  90 SW10      29.67F
ROCHESTER/MAYO CLOUDY    64  62  93 SW7       29.66S
WINONA         CLOUDY    66  61  82 CALM      29.63F
AUSTIN         CLOUDY    64  63  94 S12       29.66F
ALBERT LEA     CLOUDY    64  64 100 W5        29.66S
DODGE CENTER   DRIZZLE   64  63  94 SW10      29.66F
PRESTON        CLOUDY    63  63 100 CALM      29.67F
OWATONNA       CLOUDY    66  63  88 SW7       29.66F
FARIBAULT      CLOUDY    66  63  88 S7        29.66S
$$

...ELSEWHERE IN MINNESOTA...


CITY           SKY/WX    TMP DP  RH WIND       PRES   REMARKS
MINNEAPOLIS    CLOUDY    66  64  93 SW9       29.64F
INTNL FALLS    CLOUDY    59  58  96 W6        29.57F
DULUTH         LGT RAIN  64  62  93 W9        29.59R
RED WING       LGT RAIN  64  63  94 SW3       29.63F
REDWOOD FALLS  RAIN      64  63  96 N7        29.67F FOG
MANKATO        CLOUDY    64  61  88 SW10      29.67R
WORTHINGTON    MOCLDY    63  61  94 NW8       29.71R
FAIRMONT       CLOUDY    64  61  88 SW6       29.67F
$$

...SOUTHWEST WISCONSIN...


CITY           SKY/WX    TMP DP  RH WIND       PRES   REMARKS
LA CROSSE      CLOUDY    67  61  81 SE5       29.63F
PRAIRIE DU CHI CLOUDY    66  62  85 SE9G16    29.65F
BOSCOBEL       CLOUDY    67  62  84 VRB6      29.66F
LONE ROCK      NOT AVBL
PLATTEVILLE    CLOUDY    65  63  94 SE8       29.73F
FORT MC COY    CLOUDY    69  56  62 SW3       29.66F
VIROQUA        FAIR      64  61  88 S8        29.67S
WIS DELLS      NOT AVBL
$$

...ELSEWHERE IN WISCONSIN...


CITY           SKY/WX    TMP DP  RH WIND       PRES   REMARKS
MILWAUKEE      MOCLDY    72  69  90 S12       29.77F
MADISON        CLOUDY    71  60  68 S8        29.75F
GREEN BAY      MOCLDY    71  69  93 S8        29.70F
EAU CLAIRE     NOT AVBL
BLACK RVR FLS  FAIR      64  64 100 CALM      29.64F
MEDFORD        LGT RAIN  63  60  89 SW5       29.69S
WAUSAU         CLOUDY    68  59  73 W8        29.67F
WIS RAPIDS     LGT RAIN  70  58  65 S6        29.69F
MARSHFIELD     LGT RAIN  65  61  87 W5        29.69S
RICE LAKE      RAIN      65  63  93 SW10G17   29.67S
$$

...NORTHEAST IOWA...


CITY           SKY/WX    TMP DP  RH WIND       PRES   REMARKS
WATERLOO       CLOUDY    66  63  90 S14       29.70R
DUBUQUE        CLOUDY    65  62  90 SE9       29.71F
DECORAH        CLOUDY    63  63 100 S6        29.67F
MASON CITY     LGT RAIN  65  64  97 S12       29.69F
CHARLES CITY   CLOUDY    64  63  94 SW8       29.71R
OELWEIN        CLOUDY    64  63  94 S14       29.71S
$$

...ELSEWHERE IN IOWA...


CITY           SKY/WX    TMP DP  RH WIND       PRES   REMARKS
DES MOINES     CLOUDY    68  64  87 S7        29.71S
IOWA CITY      CLOUDY    66  64  93 SE5       29.74F
FORT DODGE     CLOUDY    66  64  94 SW13G18   29.69S
MARSHALLTOWN   CLOUDY    66  63  90 S12       29.71F
CEDAR RAPIDS   CLOUDY    65  64  97 SW6       29.73R
$$

...NORTHERN ILLINOIS...


CITY           SKY/WX    TMP DP  RH WIND       PRES   REMARKS
CHICAGO-OHARE  MOCLDY    72  67  84 S10       29.80F
DUPAGE         MOCLDY    72  70  93 S10       29.79F
CHICAGO-MIDWAY MOCLDY    74  71  91 S10       29.81F
MOLINE         MOCLDY    65  63  93 SE7       29.76F
ROCKFORD       CLOUDY    72  69  90 SW6       29.80F
STERLING       CLOUDY    66  63  88 E5        29.77F
PEORIA         CLOUDY    73  66  78 CALM      29.80F
$$

NOTE: "FAIR" INDICATES FEW OR NO CLOUDS BELOW 12,000 FEET WITH NO
SIGNIFICANT WEATHER AND/OR OBSTRUCTIONS TO VISIBILITY. WIND
SPEEDS ARE IN MILES-PER-HOUR.



USA.gov is the U.S. government's official web portal to all federal, state and local government web resources and services.